Simultaneous Nadir Overpasses (SNOs) Predictions

Prediction of SNOs between NPP and TERRA Satellite Orbit:

Table of predicted SNOs for the next 14.0 days since TLE Epoch: 4/21/2014
Index Date (NPP) Time (NPP) Lat,Lon (NPP) SZA (NPP ) Date (TERRA) Time (TERRA) Lat,Lon (TERRA) SZA (TERRA ) Distance(km) Time Diff (sec)
1 04/21/2014 22:48:12 69.84,-164.36 57.66 04/21/2014 22:49:18 69.77,-161.87 57.58 95.65 66
2 04/21/2014 23:38:35 -68.75, 4.51 123.45 04/21/2014 23:39:04 -68.76, 4.44 123.45 2.97 29
3 04/22/2014 00:29:20 68.66, 171.93 56.45 04/22/2014 00:28:31 68.66, 171.95 56.44 1.05 49
4 04/24/2014 15:04:54 68.87, -47.20 55.79 04/24/2014 15:05:59 68.87, -47.16 55.79 1.99 65
5 04/24/2014 15:55:35 -68.74, 120.29 124.36 04/24/2014 15:55:29 -68.76, 120.33 124.34 2.78 6
6 04/24/2014 16:46:13 68.28, -71.79 55.17 04/24/2014 16:45:02 68.31, -72.57 55.21 32.17 71
7 04/27/2014 07:21:52 68.81, 68.64 54.86 04/27/2014 07:22:23 68.82, 68.68 54.87 1.72 31
8 04/27/2014 08:12:33 -68.68,-123.86 125.28 04/27/2014 08:11:53 -68.71,-123.83 125.26 3.32 40
9 04/29/2014 22:48:08 -68.96, 16.91 125.82 04/29/2014 22:49:19 -68.95, 17.10 125.83 7.75 71
10 04/29/2014 23:38:51 68.77,-175.53 53.98 04/29/2014 23:38:47 68.78,-175.47 53.99 2.41 4
11 04/30/2014 00:29:31 -68.58, -7.96 126.22 04/30/2014 00:28:18 -68.61, -8.04 126.19 4.85 73
12 05/02/2014 15:05:05 -68.81, 132.88 126.78 05/02/2014 15:05:44 -68.81, 132.83 126.79 1.99 39
13 05/02/2014 15:55:49 68.67, -59.63
